GW0254 Weather Reports


Display with metric or nautical units.
time (UTC)temp
F
wind
direction
speed
MPH
gust
MPH
rain 1hr
in
rain 24hr
in
rain mn
in
humidity
%
barometer
mb
20260503004025 56 0 0.0 4.0 0.00 0.00 0.00 44 1017.2
20260503003528 56 180 2.0 3.0 0.00 0.00 0.00 46 1017.4
20260503003045 56 180 1.0 2.0 0.00 0.00 0.00 44 1017.4
20260503002526 57 0 0.0 3.0 0.00 0.00 0.00 44 1017.5
20260503002024 57 0 0.0 3.0 0.00 0.00 0.00 45 1017.6
20260503001550 57 180 1.0 3.0 0.00 0.00 0.00 45 1017.5
20260503001027 57 180 0.0 2.0 0.00 0.00 0.00 44 1017.3
20260503000528 57 0 0.0 3.0 0.00 0.00 0.00 46 1017.3
20260503000044 57 180 0.0 3.0 0.00 0.00 0.00 47 1017.4
20260502235525 57 180 0.0 3.0 0.00 0.00 0.00 47 1017.5
20260502235026 57 0 0.0 3.0 0.00 0.00 0.00 45 1017.5
20260502234543 57 180 0.0 3.0 0.00 0.00 0.00 46 1017.4
20260502234027 57 0 0.0 3.0 0.00 0.00 0.00 44 1017.4
20260502233525 57 0 1.0 3.0 0.00 0.00 0.00 44 1017.4
20260502233044 58 180 0.0 6.0 0.00 0.00 0.00 42 1017.4
20260502232527 58 0 0.0 6.0 0.00 0.00 0.00 41 1017.2
20260502232024 59 180 2.0 7.0 0.00 0.00 0.00 39 1017.4
20260502231544 59 255 2.0 7.0 0.00 0.00 0.00 39 1017.4
20260502231025 59 182 1.0 5.0 0.00 0.00 0.00 40 1017.4
20260502230528 59 182 0.0 5.0 0.00 0.00 0.00 39 1017.5
20260502230044 59 182 2.0 5.0 0.00 0.00 0.00 37 1017.5
20260502225524 59 182 0.0 3.0 0.00 0.00 0.00 39 1017.8
20260502225026 59 182 0.0 5.0 0.00 0.00 0.00 38 1017.8
20260502224544 59 182 0.0 5.0 0.00 0.00 0.00 38 1017.8
20260502224025 59 182 2.0 4.0 0.00 0.00 0.00 38 1017.6
20260502223526 59 182 2.0 4.0 0.00 0.00 0.00 39 1017.6
20260502223041 59 182 2.0 4.0 0.00 0.00 0.00 39 1017.8
20260502222528 59 182 1.0 4.0 0.00 0.00 0.00 37 1017.8
20260502222025 59 182 1.0 4.0 0.00 0.00 0.00 39 1018.0
20260502221539 59 0 2.0 4.0 0.00 0.00 0.00 38 1018.1
20260502221025 59 182 1.0 6.0 0.00 0.00 0.00 38 1018.0
20260502220525 60 182 2.0 6.0 0.00 0.00 0.00 38 1018.2
20260502220045 60 190 2.0 6.0 0.00 0.00 0.00 37 1018.2
20260502215526 60 192 2.0 6.0 0.00 0.00 0.00 39 1018.3
20260502215025 60 193 1.0 5.0 0.00 0.00 0.00 38 1018.2
20260502214544 60 193 1.0 6.0 0.00 0.00 0.00 37 1018.4
20260502214026 60 193 2.0 6.0 0.00 0.00 0.00 38 1018.5
20260502213524 60 175 1.0 4.0 0.00 0.00 0.00 37 1018.5
20260502213046 60 175 1.0 4.0 0.00 0.00 0.00 38 1018.3
20260502212524 59 175 1.0 6.0 0.00 0.00 0.00 38 1018.4
20260502212024 59 175 2.0 6.0 0.00 0.00 0.00 37 1018.5
20260502211546 59 175 2.0 4.0 0.00 0.00 0.00 37 1018.5
20260502211023 59 175 1.0 4.0 0.00 0.00 0.00 37 1018.7
20260502210526 59 175 1.0 5.0 0.00 0.00 0.00 37 1018.7
20260502210041 59 175 2.0 5.0 0.00 0.00 0.00 37 1018.7
20260502205528 59 184 2.0 4.0 0.00 0.00 0.00 37 1018.7
20260502205026 59 183 2.0 5.0 0.00 0.00 0.00 37 1018.6
20260502204545 59 185 1.0 5.0 0.00 0.00 0.00 36 1018.7
20260502204027 59 185 1.0 5.0 0.00 0.00 0.00 37 1018.6
20260502203526 59 185 1.0 5.0 0.00 0.00 0.00 36 1018.6
20260502203046 59 185 1.0 5.0 0.00 0.00 0.00 36 1018.7
20260502202528 59 184 2.0 5.0 0.00 0.00 0.00 34 1018.7
20260502202024 60 189 2.0 5.0 0.00 0.00 0.00 35 1018.8
20260502201542 60 182 2.0 5.0 0.00 0.00 0.00 34 1018.7
20260502201029 60 178 1.0 5.0 0.00 0.00 0.00 35 1018.7
20260502200526 59 178 1.0 5.0 0.00 0.00 0.00 36 1018.8
20260502200040 59 178 1.0 4.0 0.00 0.00 0.00 34 1018.9
20260502195527 60 178 1.0 4.0 0.00 0.00 0.00 35 1018.9
20260502195025 59 178 1.0 6.0 0.00 0.00 0.00 36 1018.9
20260502194556 59 184 3.0 6.0 0.00 0.00 0.00 36 1018.9
20260502194027 58 0 2.0 6.0 0.00 0.00 0.00 34 1019.1
20260502193537 59 189 2.0 6.0 0.00 0.00 0.00 36 1019.2
20260502193041 58 188 2.0 5.0 0.00 0.00 0.00 35 1019.0
20260502192528 58 189 2.0 5.0 0.00 0.00 0.00 34 1019.0
20260502192026 58 188 0.0 4.0 0.00 0.00 0.00 37 1019.0
20260502191546 58 0 1.0 4.0 0.00 0.00 0.00 35 1019.0
20260502191026 58 189 1.0 8.0 0.00 0.00 0.00 34 1019.1
20260502190526 58 189 2.0 8.0 0.00 0.00 0.00 36 1019.2
20260502190045 58 162 3.0 7.0 0.00 0.00 0.00 34 1019.1
20260502185526 58 167 2.0 6.0 0.00 0.00 0.00 36 1019.1
20260502185026 58 155 0.0 7.0 0.00 0.00 0.00 35 1019.1
20260502184552 58 155 2.0 7.0 0.00 0.00 0.00 34 1019.1
20260502184026 58 164 1.0 5.0 0.00 0.00 0.00 35 1019.1
20260502183524 58 164 1.0 6.0 0.00 0.00 0.00 39 1019.2
20260502183051 58 164 1.0 6.0 0.00 0.00 0.00 37 1019.3
20260502182524 58 169 2.0 5.0 0.00 0.00 0.00 37 1019.2
20260502182023 58 184 2.0 5.0 0.00 0.00 0.00 35 1019.3
20260502181546 58 184 3.0 5.0 0.00 0.00 0.00 37 1019.3
20260502181027 57 165 1.0 5.0 0.00 0.00 0.00 39 1019.3
20260502180524 57 165 1.0 5.0 0.00 0.00 0.00 38 1019.5
20260502164024 54 165 2.0 5.0 0.00 0.00 0.00 39 1019.4
20260502163526 55 165 1.0 5.0 0.00 0.00 0.00 43 1019.4
20260502163050 55 165 0.0 5.0 0.00 0.00 0.00 42 1019.4
20260502162524 55 165 1.0 5.0 0.00 0.00 0.00 40 1019.3
20260502162026 55 165 1.0 4.0 0.00 0.00 0.00 41 1019.2
20260502161546 55 165 1.0 4.0 0.00 0.00 0.00 41 1019.2
20260502161024 55 165 1.0 4.0 0.00 0.00 0.00 41 1019.3
20260502160525 54 165 0.0 4.0 0.00 0.00 0.00 42 1019.3
20260502152026 51 0 0.0 2.0 0.00 0.00 0.00 65 1019.3
20260502151554 51 0 0.0 0.0 0.00 0.00 0.00 67 1019.1
20260502151024 50 0 0.0 0.0 0.00 0.00 0.00 67 1019.3
20260502150524 50 0 0.0 2.0 0.00 0.00 0.00 70 1019.3
20260502130526 46 165 1.0 3.0 0.00 0.00 0.00 69 1018.4
20260502123525 46 165 1.0 2.0 0.00 0.00 0.00 68 1018.3
20260502123042 46 165 1.0 4.0 0.00 0.00 0.00 67 1018.4
20260502122526 46 165 1.0 4.0 0.00 0.00 0.00 62 1018.4
20260502122025 46 165 2.0 4.0 0.00 0.00 0.00 58 1018.5
20260502121543 45 165 0.0 2.0 0.00 0.00 0.00 56 1018.4
20260502121025 45 165 0.0 2.0 0.00 0.00 0.00 56 1018.5
20260502120527 45 0 0.0 2.0 0.00 0.00 0.00 54 1018.4
20260502115525 45 165 0.0 4.0 0.00 0.00 0.00 54 1018.4
20260502115026 45 165 1.0 4.0 0.00 0.00 0.00 54 1018.5
20260502114547 45 165 1.0 4.0 0.00 0.00 0.00 54 1018.5
20260502114026 45 165 1.0 4.0 0.00 0.00 0.00 55 1018.5
20260502113526 45 165 1.0 2.0 0.00 0.00 0.00 53 1018.6
20260502113040 45 165 1.0 4.0 0.00 0.00 0.00 54 1018.6
20260502112525 45 165 1.0 4.0 0.00 0.00 0.00 53 1018.7
20260502112027 45 165 2.0 4.0 0.00 0.00 0.00 53 1018.6
20260502111550 45 165 0.0 2.0 0.00 0.00 0.00 51 1018.8
20260502111024 45 165 1.0 2.0 0.00 0.00 0.00 50 1018.7
20260502110525 45 165 1.0 2.0 0.00 0.00 0.00 49 1018.7
20260502110044 45 165 1.0 2.0 0.00 0.00 0.00 52 1018.6
20260502105525 45 165 1.0 2.0 0.00 0.00 0.00 52 1018.6
20260502105025 45 165 0.0 2.0 0.00 0.00 0.00 50 1018.7
20260502104548 45 165 1.0 2.0 0.00 0.00 0.00 49 1018.7
20260502104025 46 165 1.0 2.0 0.00 0.00 0.00 49 1018.8
20260502103524 46 165 1.0 2.0 0.00 0.00 0.00 49 1018.7
20260502103040 46 165 0.0 2.0 0.00 0.00 0.00 50 1018.7
20260502102525 46 0 0.0 2.0 0.00 0.00 0.00 48 1018.7
20260502102026 46 165 0.0 2.0 0.00 0.00 0.00 48 1018.7
20260502101608 46 165 1.0 4.0 0.00 0.00 0.00 48 1018.7
20260502101025 46 165 1.0 4.0 0.00 0.00 0.00 49 1018.6
20260502100525 47 165 1.0 2.0 0.00 0.00 0.00 51 1018.6
20260502091026 48 165 0.0 2.0 0.00 0.00 0.00 35 1018.9
20260502090525 48 165 0.0 2.0 0.00 0.00 0.00 35 1018.8
20260502071025 49 165 1.0 4.0 0.00 0.00 0.00 37 1019.7
20260502070526 49 165 1.0 4.0 0.00 0.00 0.00 35 1019.7
20260502070054 48 165 2.0 4.0 0.00 0.00 0.00 33 1019.8
20260502065526 48 165 2.0 4.0 0.00 0.00 0.00 34 1019.7
20260502065026 48 165 1.0 4.0 0.00 0.00 0.00 35 1019.8
20260502064548 48 165 1.0 4.0 0.00 0.00 0.00 35 1019.8
20260502064025 48 165 1.0 2.0 0.00 0.00 0.00 37 1019.8
20260502063525 48 165 1.0 2.0 0.00 0.00 0.00 38 1019.8
20260502063042 49 165 1.0 5.0 0.00 0.00 0.00 40 1019.8
20260502062525 49 165 1.0 5.0 0.00 0.00 0.00 43 1019.8
20260502062024 49 165 2.0 5.0 0.00 0.00 0.00 45 1019.8
20260502061540 49 165 1.0 4.0 0.00 0.00 0.00 48 1019.7
20260502061025 49 165 1.0 4.0 0.00 0.00 0.00 49 1019.8
20260502060526 49 165 1.0 2.0 0.00 0.00 0.00 52 1019.8
20260502060039 49 165 1.0 2.0 0.00 0.00 0.00 53 1019.8
20260502055525 49 165 1.0 4.0 0.00 0.00 0.00 54 1019.8
20260502055026 49 165 1.0 4.0 0.00 0.00 0.00 54 1020.0
20260502054546 49 165 2.0 4.0 0.00 0.00 0.00 55 1020.0
20260502054025 49 165 1.0 4.0 0.00 0.00 0.00 57 1020.0
20260502053526 50 165 1.0 4.0 0.00 0.00 0.00 58 1020.0
20260502053044 50 165 1.0 2.0 0.00 0.00 0.00 59 1020.0
20260502052525 50 165 1.0 2.0 0.00 0.00 0.00 59 1020.0
20260502052028 50 165 1.0 4.0 0.00 0.00 0.00 59 1020.0
20260502051555 50 165 1.0 4.0 0.00 0.00 0.00 58 1020.0
20260502051025 50 165 2.0 4.0 0.00 0.00 0.00 57 1020.1
20260502050525 50 165 1.0 4.0 0.00 0.00 0.00 56 1020.0
20260502050040 50 165 1.0 4.0 0.00 0.00 0.00 55 1020.1
20260502045526 50 165 1.0 4.0 0.00 0.00 0.00 54 1020.0
20260502045027 50 165 2.0 4.0 0.00 0.00 0.00 53 1020.0
20260502044546 50 165 2.0 4.0 0.00 0.00 0.00 51 1020.1
20260502044025 50 165 2.0 5.0 0.00 0.00 0.00 50 1020.0
20260502043523 50 165 2.0 5.0 0.00 0.00 0.00 49 1020.0
20260502043045 50 165 1.0 4.0 0.00 0.00 0.00 46 1020.1
20260502042526 50 165 2.0 5.0 0.00 0.00 0.00 45 1020.0
20260502042025 50 165 1.0 5.0 0.00 0.00 0.00 45 1020.0
20260502041542 50 165 1.0 4.0 0.00 0.00 0.00 43 1020.0
20260502041026 50 165 1.0 4.0 0.00 0.00 0.00 43 1020.0
20260502040529 51 165 2.0 4.0 0.00 0.00 0.00 42 1020.0
20260502040052 51 165 1.0 4.0 0.00 0.00 0.00 42 1019.9
20260502035525 51 165 1.0 4.0 0.00 0.00 0.00 42 1019.8
20260502035025 51 165 1.0 4.0 0.00 0.00 0.00 42 1019.6
20260502034545 51 165 2.0 4.0 0.00 0.00 0.00 40 1019.6
20260502034025 52 165 2.0 4.0 0.00 0.00 0.00 41 1019.6
20260502033524 52 165 2.0 4.0 0.00 0.00 0.00 39 1019.6
20260502033044 52 165 1.0 4.0 0.00 0.00 0.00 38 1019.4
20260502032525 52 165 1.0 4.0 0.00 0.00 0.00 38 1019.4
20260502032025 52 165 1.0 4.0 0.00 0.00 0.00 38 1019.2
20260502031542 52 165 2.0 4.0 0.00 0.00 0.00 38 1019.2
20260502031025 53 165 1.0 4.0 0.00 0.00 0.00 39 1019.1
20260502030526 53 165 1.0 3.0 0.00 0.00 0.00 38 1019.1
20260502030041 53 165 0.0 4.0 0.00 0.00 0.00 37 1019.1
20260502025525 54 165 2.0 4.0 0.00 0.00 0.00 38 1019.1
20260502025024 54 165 2.0 4.0 0.00 0.00 0.00 38 1019.1
20260502024542 54 165 1.0 2.0 0.00 0.00 0.00 39 1019.1
20260502024025 55 165 1.0 2.0 0.00 0.00 0.00 37 1019.1
20260502023525 55 165 1.0 2.0 0.00 0.00 0.00 37 1019.0
20260502023047 56 165 0.0 2.0 0.00 0.00 0.00 36 1019.1
20260502022525 56 165 1.0 2.0 0.00 0.00 0.00 36 1018.9
20260502022024 57 165 0.0 1.0 0.00 0.00 0.00 37 1019.0
20260502021547 57 165 0.0 1.0 0.00 0.00 0.00 34 1018.9
20260502021025 57 0 0.0 1.0 0.00 0.00 0.00 32 1019.0
20260502020526 58 0 0.0 1.0 0.00 0.00 0.00 30 1019.0
20260502020100 58 165 0.0 1.0 0.00 0.00 0.00 29 1018.9
20260502015526 59 0 0.0 2.0 0.00 0.00 0.00 28 1019.0
20260502015025 59 0 0.0 2.0 0.00 0.00 0.00 27 1019.0
20260502014544 59 165 0.0 2.0 0.00 0.00 0.00 25 1018.9
20260502014025 59 165 0.0 2.0 0.00 0.00 0.00 24 1019.1
20260502013525 59 165 0.0 2.0 0.00 0.00 0.00 24 1018.9
20260502013054 59 165 1.0 2.0 0.00 0.00 0.00 23 1019.0
20260502012525 59 0 1.0 4.0 0.00 0.00 0.00 23 1019.1
20260502012026 60 165 1.0 4.0 0.00 0.00 0.00 22 1019.0
20260502011543 60 165 1.0 2.0 0.00 0.00 0.00 21 1018.9
20260502011025 60 0 0.0 2.0 0.00 0.00 0.00 24 1019.0
20260502010525 60 0 0.0 4.0 0.00 0.00 0.00 22 1019.1
20260502010042 60 165 0.0 5.0 0.00 0.00 0.00 21 1019.1
20260502005524 60 165 0.0 5.0 0.00 0.00 0.00 21 1019.1
20260502005025 60 0 1.0 5.0 0.00 0.00 0.00 20 1019.2
20260502004537 61 165 1.0 5.0 0.00 0.00 0.00 20 1019.2